Theta_e
321 321 320 320 320 319 319 318 318 319 319 317 317 316 316 317 316 316 317 317 316 316 316 317 319 322 312 299 300 309 343 351 330 313 310 308 306 308 307 310 313 313 320 326 327 331 330
321 321 320 320 319 319 318 317 317 317 317 317 317 316 316 316 316 316 316 316 316 316 316 317 320 322 307 292 303 315 313 316 315 309 308 308 309 311 308 310 312 317 317 320 324 329 330
322 322 320 319 319 319 317 318 317 317 317 317 316 316 316 316 316 316 316 316 316 316 315 317 321 321 308 299 311 312 310 310 312 308 306 308 310 307 308 309 316 315 313 315 317 324 327
322 322 321 321 320 319 318 317 317 317 316 316 316 316 316 315 315 315 315 315 316 316 316 319 321 312 299 308 312 314 310 308 311 308 308 309 311 308 307 312 314 311 311 304 314 324 329
322 322 322 321 320 319 318 318 317 316 316 316 316 316 315 315 315 314 314 315 317 317 319 320 307 303 300 319 310 310 310 308 309 308 310 317 310 305 309 307 304 306 301 304 308 319 327
322 322 321 321 320 319 318 317 317 317 316 316 315 315 314 314 314 313 314 314 317 315 317 320 318 302 306 305 309 308 308 311 310 311 309 308 305 302 302 302 297 300 301 304 304 312 322
322 321 320 321 320 319 317 316 316 316 317 317 315 314 314 314 314 312 309 304 300 299 305 301 300 303 308 311 310 305 307 307 307 305 301 305 301 299 302 304 307 305 305 303 308 318 316
322 319 319 319 319 318 317 316 316 315 316 317 316 314 314 313 313 312 306 300 302 302 298 307 307 307 309 308 306 306 307 301 300 298 302 301 299 304 307 307 306 305 303 303 310 315 317
321 320 318 319 318 317 317 316 315 315 315 316 316 315 314 313 313 306 301 303 308 306 295 302 307 307 308 310 307 306 305 302 299 298 299 298 302 308 306 305 304 301 301 303 305 314 319
321 319 318 318 318 318 317 316 315 314 314 315 315 315 314 312 304 304 304 306 309 306 292 296 302 307 308 307 302 310 304 303 299 299 301 299 305 306 303 302 303 298 307 308 306 304 300
320 318 318 318 317 317 316 316 315 314 315 315 315 314 313 312 304 302 307 307 306 302 282 300 303 312 305 303 300 300 303 304 299 299 301 300 302 302 302 303 306 303 307 304 305 302 304
319 319 318 317 317 316 316 315 315 315 315 314 314 313 313 306 308 305 307 308 303 292 285 300 305 304 300 300 298 300 301 304 303 299 298 301 303 304 304 306 307 308 303 300 298 297 294
318 318 317 317 317 316 315 314 314 314 314 313 312 311 311 309 302 307 307 303 292 287 299 300 299 301 297 297 298 296 297 296 295 291 291 296 297 300 304 298 301 302 295 290 290 290 290
318 317 317 317 317 316 315 314 315 314 313 312 309 308 310 309 305 306 303 299 286 293 296 301 300 298 298 297 296 295 295 293 294 294 290 291 291 298 302 300 298 296 295 291 287 287 291
318 317 317 317 316 315 316 315 314 314 312 311 308 306 304 304 309 304 301 291 291 295 303 302 298 296 294 295 296 294 293 293 296 296 291 289 292 300 302 303 303 296 293 295 292 291 292
317 317 316 316 315 316 316 315 314 313 312 310 301 301 306 307 309 302 298 292 295 302 304 301 293 296 294 294 292 291 291 296 296 299 298 294 290 297 302 302 301 298 302 295 293 289 288
317 317 316 315 315 315 315 314 314 313 311 310 303 303 307 307 305 301 293 293 300 306 304 299 295 295 296 294 295 291 293 296 299 298 298 294 292 294 297 295 296 296 296 295 295 293 290
317 316 316 316 315 315 316 314 313 312 310 306 302 301 308 307 298 293 294 297 301 301 302 301 299 299 299 299 293 292 294 297 302 300 297 296 292 290 295 299 299 299 297 297 292 291 293
316 316 315 314 314 315 315 314 313 311 310 307 305 300 306 303 293 292 295 299 302 301 301 301 300 303 303 301 298 297 298 304 302 300 297 297 290 288 291 294 295 295 296 296 296 296 294
314 314 315 315 314 315 316 314 312 311 310 305 306 298 300 300 296 295 295 297 299 306 304 304 302 305 304 303 305 304 306 312 311 304 320 305 289 291 290 292 295 297 301 298 296 293 292
313 313 314 314 314 315 315 314 313 312 310 305 307 304 300 296 297 297 297 299 300 303 308 310 308 311 306 300 303 302 307 307 311 315 302 297 293 291 293 295 297 297 300 300 298 296 296
313 313 313 313 314 314 314 315 314 312 309 305 304 303 305 302 304 304 297 298 302 308 308 308 307 310 307 303 302 301 305 304 304 309 303 296 292 291 292 295 297 298 304 303 302 304 302
312 312 313 313 313 314 314 315 314 312 307 299 301 305 305 302 303 303 301 306 307 310 312 313 312 308 307 310 313 313 309 309 307 305 304 300 290 290 290 297 299 295 300 306 305 307 306
312 312 312 313 313 314 315 315 315 313 311 306 299 301 302 300 304 307 310 312 309 311 309 314 313 309 312 319 317 313 312 312 310 304 304 300 291 288 287 292 288 296 311 312 309 312 313
312 313 313 314 314 314 314 315 315 314 312 307 303 301 301 298 303 306 309 310 311 311 310 312 312 313 316 311 304 300 300 303 305 308 305 303 297 293 288 286 294 305 308 309 306 306 315
311 312 312 312 312 313 314 314 314 314 313 308 304 302 301 299 299 309 307 312 306 305 309 313 316 317 315 307 304 296 295 299 301 306 304 303 301 297 292 290 291 300 312 317 315 302 314
312 311 312 312 312 313 313 314 314 314 313 309 304 302 302 300 304 305 304 305 312 309 305 309 312 313 313 304 301 298 298 305 299 298 300 301 300 297 295 295 299 306 314 316 302 303 315
310 311 311 312 312 312 313 313 313 314 314 310 302 303 302 300 303 309 311 306 307 309 305 308 310 311 310 303 302 301 299 302 299 302 302 298 298 298 297 296 296 315 313 307 308 311 315
310 311 311 312 311 312 312 313 313 313 314 313 301 304 306 299 302 309 313 315 314 312 308 305 308 309 311 307 304 303 301 301 298 296 304 297 302 301 302 301 308 314 313 316 315 312 315
Wind_Speed
16 17 17 17 15 16 16 16 15 15 16 16 15 15 14 13 14 13 13 13 14 14 12 10 10 10 3 1 11 3 9 10 9 9 8 4 3 2 2 3 5 2 5 3 4 6 7
15 16 16 16 16 16 17 17 17 17 16 16 16 15 15 14 14 14 15 15 15 13 11 8 8 8 2 3 3 4 6 4 6 7 5 4 4 5 2 3 2 4 6 8 7 8 6
16 16 18 18 16 15 17 17 17 17 17 17 16 16 16 16 15 15 16 17 15 13 8 6 6 3 1 14 3 7 5 2 7 3 5 3 2 3 4 6 2 4 4 4 3 8 6
16 16 15 15 15 15 15 17 17 17 17 17 17 16 16 17 17 17 17 18 17 10 6 5 3 1 9 4 3 8 2 2 3 3 3 3 3 2 1 5 6 3 4 5 2 7 5
16 15 15 16 14 14 15 15 16 17 18 17 17 17 17 17 17 17 16 20 12 3 4 2 1 1 10 7 3 3 4 3 6 3 1 2 4 2 3 3 5 8 3 5 10 5 6
16 16 16 16 16 15 16 17 15 15 17 18 18 18 18 17 17 17 18 11 1 3 2 3 4 3 5 1 2 1 2 4 3 5 3 4 6 4 4 5 2 3 4 5 5 2 1
18 17 18 17 16 16 18 18 17 17 16 16 18 18 18 17 14 13 9 4 3 1 2 9 5 3 4 8 2 2 3 5 3 4 5 2 5 5 7 4 4 2 3 5 5 1 3
18 20 19 18 17 18 19 18 18 18 17 16 15 18 18 16 12 9 1 2 1 1 7 10 5 7 4 1 3 2 5 5 4 3 3 6 4 5 5 4 2 2 2 5 10 3 6
18 18 19 17 19 19 18 19 19 19 18 16 15 16 15 13 12 2 3 6 4 3 1 6 6 5 5 8 6 6 8 5 5 4 3 7 3 4 4 4 4 2 4 2 7 3 6
17 18 18 17 17 17 17 17 20 20 19 16 15 16 15 12 3 2 5 2 6 6 5 6 3 7 5 5 3 5 6 7 1 8 8 3 2 3 2 4 4 5 3 4 6 3 4
16 19 18 18 18 17 17 18 19 20 18 16 15 16 11 3 5 3 1 7 1 3 3 2 3 1 1 8 6 2 4 6 7 5 7 7 6 3 5 5 6 8 2 5 4 3 5
18 17 18 18 18 18 17 18 18 17 17 17 16 14 8 1 3 7 6 6 3 7 4 1 4 5 4 3 2 4 3 5 4 5 4 4 2 5 7 4 7 4 3 7 5 3 3
18 17 18 18 18 18 18 20 20 18 19 19 18 13 6 4 4 2 4 3 6 4 4 3 3 4 2 3 2 3 7 5 6 5 1 4 3 2 4 4 3 5 7 4 5 5 6
17 17 17 18 17 19 21 22 19 19 21 21 21 4 7 8 1 5 1 6 3 2 5 5 3 4 6 5 3 3 6 6 1 6 4 6 5 7 4 8 6 5 8 7 6 4 4
17 18 18 18 18 21 19 21 20 21 24 25 7 1 1 5 10 2 5 3 6 4 5 7 1 4 2 3 6 4 7 8 9 7 7 6 5 4 5 4 8 3 3 4 9 4 2
18 19 19 19 21 20 19 21 21 22 27 23 1 1 2 3 9 1 6 4 3 4 5 5 4 2 5 4 4 5 7 6 6 10 6 5 1 4 3 4 2 4 5 3 3 4 4
18 18 18 21 21 22 22 24 21 22 25 13 0 4 4 3 2 5 4 5 5 6 3 5 2 3 4 4 7 7 8 4 7 6 7 7 4 6 2 3 8 1 0 5 5 5 7
18 18 18 19 19 20 21 23 21 22 24 4 2 5 1 2 5 1 3 4 3 5 2 7 3 7 3 4 5 4 10 11 10 12 11 8 6 6 12 5 1 4 8 7 6 6 3
18 18 19 21 22 20 21 23 21 24 21 2 3 2 1 2 3 2 4 4 3 3 4 3 4 6 2 2 3 5 3 5 8 9 12 9 2 1 12 7 1 5 5 5 4 4 7
19 19 20 19 22 21 20 20 23 23 19 2 2 3 4 4 0 4 1 3 4 5 5 5 3 1 1 2 1 3 2 2 3 1 8 9 4 9 10 9 4 4 5 5 6 3 5
20 20 20 20 21 20 21 20 21 24 16 1 3 1 3 3 3 4 3 2 3 4 2 1 1 2 4 3 1 0 1 4 6 9 4 7 9 8 7 5 4 3 2 7 8 5 7
19 19 20 20 20 20 21 19 20 22 10 2 2 2 4 1 1 4 5 5 6 4 3 2 4 2 3 4 2 2 0 1 2 5 3 4 4 7 6 6 7 3 1 6 5 4 6
19 19 19 20 20 19 20 17 18 17 11 3 3 2 2 2 1 3 5 5 4 2 4 3 1 2 3 3 3 2 2 3 3 5 2 2 6 5 9 5 7 2 8 6 4 4 5
18 19 19 20 19 18 17 16 15 13 10 2 2 1 2 3 1 4 2 3 3 1 3 4 1 3 2 5 4 4 5 4 2 4 4 5 4 4 3 3 4 8 1 3 7 6 5
18 19 18 18 19 18 18 16 14 11 10 4 2 0 1 3 3 5 4 4 6 1 3 4 1 2 1 3 4 4 4 4 3 1 4 3 5 4 6 3 4 2 4 5 3 7 7
19 18 18 19 19 19 18 17 14 11 10 1 2 2 1 2 5 3 2 2 2 1 3 3 2 2 5 3 4 5 6 4 4 4 4 6 4 3 4 5 8 7 5 5 6 6 1
20 20 20 20 20 19 18 16 15 14 11 3 3 3 1 1 5 3 4 2 1 0 2 3 3 1 3 2 3 4 4 1 4 6 4 2 3 3 2 3 7 5 4 3 7 8 1
20 20 20 20 20 19 18 17 16 15 11 5 4 3 2 2 7 5 4 3 2 1 2 3 3 2 2 2 3 4 3 5 1 1 2 5 7 4 2 4 7 3 4 7 4 1 4
20 20 20 19 20 20 19 18 16 14 10 4 3 2 1 3 7 4 8 10 8 8 3 2 3 3 5 4 1 3 2 1 2 3 1 2 5 4 7 5 3 3 3 2 3 2 2
Wind_Direction
2 359 358 358 357 356 355 353 351 349 348 345 344 341 339 336 333 329 325 322 320 320 311 301 304 316 325 270 252 329 42 90 120 134 162 151 133 163 5 320 299 189 291 218 196 151 150
4 2 357 354 352 351 350 349 348 347 346 344 341 338 337 334 330 327 321 318 314 313 308 292 300 316 265 266 255 72 35 119 123 114 156 159 175 190 217 243 200 247 281 262 176 152 150
355 354 357 354 352 349 346 345 345 344 343 342 340 337 334 332 329 325 322 317 309 305 295 276 297 286 272 238 358 339 345 98 161 134 135 212 177 60 340 334 342 308 330 320 190 150 172
354 352 349 349 347 345 342 341 341 341 340 339 338 336 334 332 329 326 320 315 308 292 261 264 271 259 247 249 308 304 159 111 120 115 129 173 149 96 203 308 354 2 50 16 20 150 207
349 348 346 347 345 343 339 337 335 337 337 337 336 334 332 333 330 328 322 316 310 236 221 222 3 83 270 323 292 276 162 137 120 113 214 146 107 98 11 38 18 8 58 10 328 248 157
345 346 345 347 345 342 339 337 334 331 332 335 334 333 332 332 330 330 323 316 59 95 207 192 259 345 274 179 274 150 176 143 114 110 93 99 57 65 32 61 143 21 357 313 258 296 81
347 346 345 342 343 341 339 337 335 332 327 330 332 332 331 330 329 334 350 9 31 324 240 192 195 251 309 296 280 211 170 118 91 74 127 92 93 201 199 147 125 114 219 281 289 47 125
344 347 345 343 342 341 339 336 334 331 329 327 324 330 329 328 322 322 358 189 213 154 305 222 234 279 267 331 327 285 136 125 115 163 108 48 212 204 147 135 111 190 309 300 300 306 98
343 343 344 341 340 339 336 335 334 331 330 327 325 324 323 322 319 333 219 226 2 353 123 292 186 198 216 147 207 241 130 132 129 136 169 140 217 120 86 32 352 251 211 274 234 7 34
342 341 340 339 339 336 334 332 333 331 328 325 320 318 317 324 326 318 249 317 303 191 56 267 249 274 141 164 224 204 169 130 106 169 146 171 229 169 88 254 152 305 174 221 274 136 203
343 343 341 341 339 334 334 331 331 330 326 322 316 313 313 324 303 239 13 333 57 67 27 171 194 93 266 153 148 222 223 58 153 165 120 219 138 170 224 229 175 239 297 289 303 132 123
343 341 343 339 338 337 333 331 329 326 325 318 310 307 304 263 230 248 317 322 70 45 259 78 125 148 138 9 73 115 119 67 135 119 52 188 313 163 200 223 176 255 17 34 56 72 41
341 340 343 339 335 337 336 335 333 326 325 321 310 281 228 187 226 322 306 75 51 140 317 154 155 145 127 139 104 109 138 141 149 107 37 5 261 256 172 314 9 91 62 341 353 12 222
340 343 340 333 333 337 337 337 333 329 328 328 326 299 207 221 322 351 91 59 154 262 265 305 83 106 159 145 215 109 113 165 125 98 118 152 318 166 184 183 200 179 152 162 201 199 248
343 342 336 335 337 339 334 338 336 333 335 334 334 78 209 251 215 334 83 80 208 219 305 335 348 114 158 168 144 133 172 186 195 165 144 127 258 273 185 162 146 179 185 181 105 5 58
343 342 342 341 342 339 336 340 338 334 338 335 249 202 303 66 149 126 80 223 245 224 318 4 74 15 168 191 123 142 172 198 196 180 145 198 163 223 243 129 56 170 155 81 17 141 235
340 341 339 342 342 342 342 343 340 336 337 335 166 70 333 93 141 49 144 232 270 255 353 14 354 326 215 204 178 168 198 275 203 168 133 136 103 289 3 173 181 86 31 53 121 131 167
340 340 340 341 340 339 344 345 343 340 340 31 343 63 314 130 57 8 153 210 281 279 275 257 201 210 226 178 171 205 200 208 166 147 159 193 149 209 226 261 200 179 209 159 134 241 172
340 341 341 343 344 342 345 347 345 346 345 297 78 126 345 34 122 300 283 283 258 284 251 236 248 206 156 191 117 182 192 289 147 144 165 180 223 301 329 348 81 206 190 136 100 78 191
342 342 343 343 345 345 343 347 350 350 353 20 84 80 338 49 101 140 199 271 270 245 255 218 267 4 175 175 337 173 270 274 13 145 159 111 137 161 197 208 174 184 179 152 136 133 168
343 343 344 345 345 344 347 346 349 352 346 15 24 210 186 208 271 182 147 265 276 288 248 201 190 250 187 176 189 241 335 316 41 0 107 131 198 178 226 212 207 267 207 175 191 191 168
340 341 342 344 345 346 350 349 351 352 352 52 59 44 356 259 335 140 176 226 220 255 214 209 164 161 136 113 134 191 211 310 145 344 76 345 212 171 269 177 182 233 252 220 230 148 273
340 341 341 342 343 344 349 350 353 359 4 31 332 322 111 253 131 120 209 235 240 31 228 250 150 107 92 142 209 185 134 73 145 128 123 128 136 109 246 141 123 334 220 208 234 184 166
340 342 340 340 341 343 345 351 356 4 24 336 282 324 53 274 194 212 244 227 270 271 279 322 65 123 196 95 103 81 52 28 64 43 132 141 115 108 180 100 150 231 183 177 232 261 207
338 338 337 338 340 342 346 349 353 356 5 344 282 97 93 275 256 293 249 242 304 273 224 248 316 99 60 119 70 65 344 6 323 272 86 84 118 104 135 163 269 305 189 163 171 272 201
339 339 343 345 344 343 342 344 348 351 353 303 261 204 141 108 251 328 317 295 242 278 311 256 36 108 79 95 87 159 197 194 210 306 146 93 92 129 137 141 186 229 158 158 141 295 114
336 337 338 340 340 340 340 342 343 346 346 332 276 198 118 221 267 187 222 226 161 139 226 316 328 66 69 91 113 164 220 323 208 185 181 55 32 174 164 152 282 224 158 188 118 224 88
337 336 335 335 335 335 336 335 337 340 340 347 274 208 155 239 272 225 245 236 12 110 159 276 28 311 77 104 152 183 167 220 235 255 233 166 140 202 100 84 261 118 106 171 238 296 170
333 331 331 331 331 330 331 330 331 336 333 339 286 320 69 201 252 265 243 242 219 218 145 250 212 196 207 99 97 112 133 113 181 242 25 265 178 180 168 220 251 280 221 169 181 228 236